| time (UTC) | temp F | wind direction | speed MPH | gust MPH | rain 1hr in | rain 24hr in | rain mn in | humidity % | barometer mb |
| 20260508183833 | 63 | 38 | 0.0 | 3.0 | 0.00 | 0.05 | 0.00 | 62 | 1008.1 |
| 20260508183333 | 63 | 356 | 0.0 | 3.0 | 0.00 | 0.05 | 0.00 | 61 | 1008.1 |
| 20260508182833 | 63 | 294 | 0.0 | 1.0 | 0.00 | 0.05 | 0.00 | 62 | 1008.2 |
| 20260508182333 | 62 | 294 | 0.0 | 1.0 | 0.00 | 0.05 | 0.00 | 63 | 1008.2 |
| 20260508181833 | 62 | 84 | 0.0 | 1.0 | 0.00 | 0.05 | 0.00 | 65 | 1008.2 |
| 20260508181333 | 62 | 158 | 0.0 | 1.0 | 0.00 | 0.05 | 0.00 | 66 | 1008.3 |
| 20260508180833 | 62 | 355 | 0.0 | 3.0 | 0.00 | 0.05 | 0.00 | 67 | 1008.4 |
| 20260508180333 | 62 | 92 | 0.0 | 3.0 | 0.00 | 0.05 | 0.00 | 65 | 1008.4 |
| 20260508175833 | 62 | 17 | 0.0 | 3.0 | 0.00 | 0.05 | 0.00 | 64 | 1008.5 |
| 20260508175333 | 62 | 17 | 0.0 | 3.0 | 0.00 | 0.05 | 0.00 | 61 | 1008.5 |
| 20260508174833 | 62 | 152 | 1.0 | 3.0 | 0.00 | 0.05 | 0.00 | 65 | 1008.6 |
| 20260508174333 | 62 | 20 | 0.0 | 1.0 | 0.00 | 0.05 | 0.00 | 66 | 1008.6 |
| 20260508173833 | 62 | 189 | 0.0 | 1.0 | 0.00 | 0.05 | 0.00 | 68 | 1008.8 |
| 20260508173333 | 62 | 189 | 0.0 | 2.0 | 0.00 | 0.05 | 0.00 | 67 | 1008.8 |
| 20260508172833 | 62 | 127 | 0.0 | 6.0 | 0.00 | 0.05 | 0.00 | 68 | 1009.0 |
| 20260508172333 | 61 | 165 | 0.0 | 6.0 | 0.00 | 0.05 | 0.00 | 68 | 1009.0 |
| 20260508171833 | 61 | 181 | 0.0 | 4.0 | 0.00 | 0.05 | 0.00 | 70 | 1009.1 |
| 20260508171333 | 61 | 284 | 0.0 | 4.0 | 0.00 | 0.05 | 0.00 | 71 | 1009.2 |
| 20260508170833 | 61 | 126 | 0.0 | 1.0 | 0.00 | 0.05 | 0.00 | 70 | 1009.3 |
| 20260508170333 | 60 | 153 | 0.0 | 1.0 | 0.00 | 0.05 | 0.00 | 69 | 1009.3 |
| 20260508165832 | 60 | 153 | 0.0 | 1.0 | 0.00 | 0.05 | 0.00 | 69 | 1009.3 |
| 20260508165333 | 60 | 142 | 0.0 | 1.0 | 0.00 | 0.05 | 0.00 | 69 | 1009.4 |
| 20260508164833 | 60 | 142 | 0.0 | 1.0 | 0.00 | 0.05 | 0.00 | 70 | 1009.5 |
| 20260508164333 | 60 | 0 | 0.0 | 0.0 | 0.00 | 0.05 | 0.00 | 68 | 1009.6 |
| 20260508163833 | 60 | 0 | 0.0 | 0.0 | 0.00 | 0.05 | 0.00 | 71 | 1009.7 |
| 20260508163333 | 60 | 0 | 0.0 | 0.0 | 0.00 | 0.05 | 0.00 | 71 | 1009.9 |
| 20260508162833 | 60 | 171 | 0.0 | 1.0 | 0.00 | 0.05 | 0.00 | 68 | 1009.9 |
| 20260508162333 | 60 | 171 | 0.0 | 1.0 | 0.00 | 0.05 | 0.00 | 72 | 1009.9 |
| 20260508161833 | 60 | 172 | 0.0 | 1.0 | 0.00 | 0.05 | 0.00 | 70 | 1009.9 |
| 20260508161333 | 60 | 0 | 0.0 | 0.0 | 0.00 | 0.05 | 0.00 | 73 | 1009.9 |
| 20260508160833 | 60 | 181 | 0.0 | 1.0 | 0.00 | 0.05 | 0.00 | 73 | 1009.9 |
| 20260508160333 | 59 | 181 | 0.0 | 3.0 | 0.00 | 0.05 | 0.00 | 74 | 1009.9 |
| 20260508155833 | 59 | 190 | 0.0 | 3.0 | 0.00 | 0.05 | 0.00 | 75 | 1009.9 |
| 20260508155333 | 59 | 0 | 0.0 | 0.0 | 0.00 | 0.05 | 0.00 | 76 | 1010.0 |
| 20260508154833 | 59 | 0 | 0.0 | 0.0 | 0.00 | 0.05 | 0.00 | 76 | 1010.0 |
| 20260508154333 | 58 | 106 | 0.0 | 1.0 | 0.00 | 0.05 | 0.00 | 77 | 1010.1 |
| 20260508153833 | 58 | 106 | 0.0 | 1.0 | 0.00 | 0.05 | 0.00 | 76 | 1010.2 |
| 20260508153333 | 58 | 0 | 0.0 | 0.0 | 0.00 | 0.05 | 0.00 | 76 | 1010.2 |
| 20260508152833 | 58 | 0 | 0.0 | 0.0 | 0.00 | 0.05 | 0.00 | 76 | 1010.1 |
| 20260508152333 | 57 | 0 | 0.0 | 0.0 | 0.00 | 0.05 | 0.00 | 78 | 1010.2 |
| 20260508151833 | 57 | 0 | 0.0 | 0.0 | 0.00 | 0.05 | 0.00 | 77 | 1010.4 |
| 20260508151333 | 57 | 0 | 0.0 | 0.0 | 0.00 | 0.05 | 0.00 | 79 | 1010.3 |
| 20260508150833 | 56 | 100 | 0.0 | 2.0 | 0.00 | 0.05 | 0.00 | 79 | 1010.4 |
| 20260508150333 | 56 | 100 | 0.0 | 2.0 | 0.00 | 0.05 | 0.00 | 78 | 1010.3 |
| 20260508145833 | 55 | 0 | 0.0 | 0.0 | 0.00 | 0.05 | 0.00 | 79 | 1010.3 |
| 20260508145333 | 55 | 0 | 0.0 | 0.0 | 0.00 | 0.05 | 0.00 | 80 | 1010.3 |
| 20260508144833 | 55 | 0 | 0.0 | 0.0 | 0.00 | 0.05 | 0.00 | 81 | 1010.4 |
| 20260508144333 | 54 | 0 | 0.0 | 0.0 | 0.00 | 0.05 | 0.00 | 81 | 1010.4 |
| 20260508143833 | 54 | 0 | 0.0 | 0.0 | 0.00 | 0.05 | 0.00 | 82 | 1010.4 |
| 20260508143333 | 54 | 0 | 0.0 | 0.0 | 0.00 | 0.05 | 0.00 | 84 | 1010.4 |
| 20260508142832 | 53 | 0 | 0.0 | 0.0 | 0.00 | 0.05 | 0.00 | 85 | 1010.4 |
| 20260508142333 | 53 | 0 | 0.0 | 0.0 | 0.00 | 0.05 | 0.00 | 86 | 1010.4 |
| 20260508141833 | 53 | 0 | 0.0 | 0.0 | 0.00 | 0.05 | 0.00 | 87 | 1010.4 |
| 20260508141333 | 52 | 0 | 0.0 | 0.0 | 0.00 | 0.05 | 0.00 | 90 | 1010.5 |
| 20260508140833 | 52 | 0 | 0.0 | 0.0 | 0.00 | 0.05 | 0.00 | 92 | 1010.4 |
| 20260508140333 | 51 | 0 | 0.0 | 0.0 | 0.00 | 0.05 | 0.00 | 94 | 1010.4 |
| 20260508135833 | 50 | 0 | 0.0 | 0.0 | 0.00 | 0.05 | 0.00 | 96 | 1010.5 |
| 20260508135333 | 50 | 173 | 0.0 | 1.0 | 0.00 | 0.05 | 0.00 | 96 | 1010.4 |
| 20260508134833 | 49 | 173 | 0.0 | 1.0 | 0.00 | 0.05 | 0.00 | 97 | 1010.5 |
| 20260508134333 | 49 | 193 | 0.0 | 1.0 | 0.00 | 0.05 | 0.00 | 98 | 1010.4 |
| 20260508133833 | 49 | 193 | 0.0 | 1.0 | 0.00 | 0.05 | 0.00 | 98 | 1010.5 |
| 20260508133333 | 48 | 0 | 0.0 | 0.0 | 0.00 | 0.05 | 0.00 | 98 | 1010.5 |
| 20260508132833 | 48 | 0 | 0.0 | 0.0 | 0.00 | 0.05 | 0.00 | 98 | 1010.6 |
| 20260508132333 | 48 | 0 | 0.0 | 0.0 | 0.00 | 0.05 | 0.00 | 98 | 1010.6 |
| 20260508131833 | 47 | 0 | 0.0 | 0.0 | 0.00 | 0.05 | 0.00 | 98 | 1010.6 |
| 20260508130833 | 47 | 0 | 0.0 | 0.0 | 0.00 | 0.05 | 0.00 | 98 | 1010.7 |
| 20260508130333 | 46 | 0 | 0.0 | 0.0 | 0.00 | 0.05 | 0.00 | 98 | 1010.7 |
| 20260508125833 | 46 | 0 | 0.0 | 0.0 | 0.00 | 0.05 | 0.00 | 98 | 1010.7 |
| 20260508125333 | 45 | 0 | 0.0 | 0.0 | 0.00 | 0.05 | 0.00 | 98 | 1010.6 |
| 20260508124833 | 44 | 0 | 0.0 | 0.0 | 0.00 | 0.05 | 0.00 | 98 | 1010.9 |
| 20260508124333 | 43 | 0 | 0.0 | 0.0 | 0.00 | 0.05 | 0.00 | 98 | 1010.8 |
| 20260508123833 | 43 | 0 | 0.0 | 0.0 | 0.00 | 0.05 | 0.00 | 98 | 1010.7 |
| 20260508123333 | 42 | 0 | 0.0 | 0.0 | 0.00 | 0.05 | 0.00 | 98 | 1010.7 |
| 20260508122833 | 42 | 0 | 0.0 | 0.0 | 0.00 | 0.05 | 0.00 | 98 | 1010.7 |
| 20260508122333 | 41 | 0 | 0.0 | 0.0 | 0.00 | 0.05 | 0.00 | 98 | 1010.8 |
| 20260508121833 | 41 | 0 | 0.0 | 0.0 | 0.00 | 0.05 | 0.00 | 97 | 1010.8 |
| 20260508121333 | 40 | 0 | 0.0 | 0.0 | 0.00 | 0.05 | 0.00 | 97 | 1010.8 |
| 20260508120833 | 40 | 0 | 0.0 | 0.0 | 0.00 | 0.05 | 0.00 | 97 | 1010.8 |
| 20260508120333 | 39 | 0 | 0.0 | 0.0 | 0.00 | 0.05 | 0.00 | 97 | 1010.7 |
| 20260508115833 | 38 | 0 | 0.0 | 0.0 | 0.00 | 0.05 | 0.00 | 97 | 1010.5 |
| 20260508115333 | 38 | 0 | 0.0 | 0.0 | 0.00 | 0.05 | 0.00 | 97 | 1010.6 |
| 20260508114833 | 37 | 0 | 0.0 | 0.0 | 0.00 | 0.05 | 0.00 | 96 | 1010.4 |
| 20260508114333 | 37 | 0 | 0.0 | 0.0 | 0.00 | 0.05 | 0.00 | 96 | 1010.4 |
| 20260508113833 | 37 | 0 | 0.0 | 0.0 | 0.00 | 0.05 | 0.00 | 96 | 1010.4 |
| 20260508113333 | 36 | 0 | 0.0 | 0.0 | 0.00 | 0.05 | 0.00 | 96 | 1010.4 |
| 20260508112333 | 36 | 0 | 0.0 | 0.0 | 0.00 | 0.05 | 0.00 | 95 | 1010.3 |
| 20260508111833 | 36 | 0 | 0.0 | 0.0 | 0.00 | 0.05 | 0.00 | 95 | 1010.3 |
| 20260508111332 | 36 | 0 | 0.0 | 0.0 | 0.00 | 0.05 | 0.00 | 95 | 1010.3 |
| 20260508110833 | 36 | 0 | 0.0 | 0.0 | 0.00 | 0.05 | 0.00 | 95 | 1010.3 |
| 20260508110333 | 36 | 0 | 0.0 | 0.0 | 0.00 | 0.05 | 0.00 | 95 | 1010.3 |
| 20260508105833 | 36 | 0 | 0.0 | 0.0 | 0.00 | 0.05 | 0.00 | 95 | 1010.2 |
| 20260508105333 | 36 | 0 | 0.0 | 0.0 | 0.00 | 0.05 | 0.00 | 95 | 1010.3 |
| 20260508104833 | 37 | 0 | 0.0 | 0.0 | 0.00 | 0.05 | 0.00 | 95 | 1010.2 |
| 20260508104333 | 37 | 0 | 0.0 | 0.0 | 0.00 | 0.05 | 0.00 | 95 | 1010.2 |
| 20260508103833 | 37 | 0 | 0.0 | 0.0 | 0.00 | 0.05 | 0.00 | 95 | 1010.1 |
| 20260508103333 | 37 | 0 | 0.0 | 0.0 | 0.00 | 0.05 | 0.00 | 95 | 1010.3 |
| 20260508102833 | 37 | 0 | 0.0 | 0.0 | 0.00 | 0.05 | 0.00 | 95 | 1010.3 |
| 20260508102333 | 37 | 0 | 0.0 | 0.0 | 0.00 | 0.05 | 0.00 | 95 | 1010.4 |
| 20260508101833 | 37 | 0 | 0.0 | 0.0 | 0.00 | 0.05 | 0.00 | 94 | 1010.3 |
| 20260508101333 | 37 | 0 | 0.0 | 0.0 | 0.00 | 0.05 | 0.00 | 95 | 1010.3 |
| 20260508100833 | 37 | 0 | 0.0 | 0.0 | 0.00 | 0.05 | 0.00 | 95 | 1010.3 |
| 20260508100333 | 38 | 0 | 0.0 | 0.0 | 0.00 | 0.05 | 0.00 | 95 | 1010.4 |
| 20260508095832 | 38 | 0 | 0.0 | 0.0 | 0.00 | 0.05 | 0.00 | 95 | 1010.4 |
| 20260508095333 | 38 | 0 | 0.0 | 0.0 | 0.00 | 0.05 | 0.00 | 95 | 1010.4 |
| 20260508094833 | 38 | 0 | 0.0 | 0.0 | 0.00 | 0.05 | 0.00 | 95 | 1010.5 |
| 20260508094333 | 38 | 0 | 0.0 | 0.0 | 0.00 | 0.05 | 0.00 | 95 | 1010.5 |
| 20260508093833 | 38 | 0 | 0.0 | 0.0 | 0.00 | 0.05 | 0.00 | 95 | 1010.5 |
| 20260508093333 | 38 | 0 | 0.0 | 0.0 | 0.00 | 0.05 | 0.00 | 95 | 1010.6 |
| 20260508092833 | 38 | 0 | 0.0 | 0.0 | 0.00 | 0.05 | 0.00 | 95 | 1010.5 |
| 20260508092333 | 39 | 0 | 0.0 | 0.0 | 0.00 | 0.05 | 0.00 | 95 | 1010.6 |
| 20260508091833 | 39 | 0 | 0.0 | 0.0 | 0.00 | 0.05 | 0.00 | 95 | 1010.6 |
| 20260508091333 | 39 | 0 | 0.0 | 0.0 | 0.00 | 0.05 | 0.00 | 95 | 1010.5 |
| 20260508090833 | 39 | 0 | 0.0 | 0.0 | 0.00 | 0.05 | 0.00 | 95 | 1010.6 |
| 20260508090333 | 39 | 0 | 0.0 | 0.0 | 0.00 | 0.05 | 0.00 | 95 | 1010.5 |
| 20260508085833 | 39 | 0 | 0.0 | 0.0 | 0.00 | 0.05 | 0.00 | 95 | 1010.5 |
| 20260508085333 | 39 | 0 | 0.0 | 0.0 | 0.00 | 0.05 | 0.00 | 95 | 1010.6 |
| 20260508084833 | 40 | 0 | 0.0 | 0.0 | 0.00 | 0.05 | 0.00 | 95 | 1010.6 |
| 20260508084333 | 40 | 0 | 0.0 | 0.0 | 0.00 | 0.05 | 0.00 | 95 | 1010.6 |
| 20260508083833 | 40 | 0 | 0.0 | 0.0 | 0.00 | 0.05 | 0.00 | 95 | 1010.6 |
| 20260508083333 | 40 | 0 | 0.0 | 0.0 | 0.00 | 0.05 | 0.00 | 95 | 1010.5 |
| 20260508082833 | 40 | 0 | 0.0 | 0.0 | 0.00 | 0.05 | 0.00 | 95 | 1010.5 |
| 20260508082333 | 40 | 0 | 0.0 | 0.0 | 0.00 | 0.05 | 0.00 | 95 | 1010.5 |
| 20260508081833 | 40 | 0 | 0.0 | 0.0 | 0.00 | 0.05 | 0.00 | 95 | 1010.6 |
| 20260508081333 | 40 | 0 | 0.0 | 0.0 | 0.00 | 0.05 | 0.00 | 95 | 1010.6 |
| 20260508080833 | 40 | 0 | 0.0 | 0.0 | 0.00 | 0.05 | 0.00 | 95 | 1010.7 |
| 20260508080333 | 40 | 0 | 0.0 | 0.0 | 0.00 | 0.05 | 0.00 | 95 | 1010.7 |
| 20260508075333 | 40 | 0 | 0.0 | 0.0 | 0.00 | 0.05 | 0.00 | 95 | 1010.9 |
| 20260508074833 | 40 | 0 | 0.0 | 0.0 | 0.00 | 0.05 | 0.00 | 95 | 1010.9 |
| 20260508074333 | 40 | 0 | 0.0 | 0.0 | 0.00 | 0.05 | 0.00 | 95 | 1011.0 |
| 20260508073833 | 40 | 0 | 0.0 | 0.0 | 0.00 | 0.05 | 0.00 | 95 | 1011.0 |
| 20260508073333 | 40 | 0 | 0.0 | 0.0 | 0.00 | 0.05 | 0.00 | 94 | 1011.0 |
| 20260508072833 | 41 | 0 | 0.0 | 0.0 | 0.00 | 0.05 | 0.00 | 94 | 1011.0 |
| 20260508072333 | 41 | 0 | 0.0 | 0.0 | 0.00 | 0.05 | 0.00 | 94 | 1011.0 |
| 20260508071833 | 41 | 0 | 0.0 | 0.0 | 0.00 | 0.05 | 0.00 | 95 | 1010.9 |
| 20260508071333 | 41 | 0 | 0.0 | 0.0 | 0.00 | 0.05 | 0.00 | 95 | 1011.0 |
| 20260508070832 | 41 | 0 | 0.0 | 0.0 | 0.00 | 0.05 | 0.00 | 95 | 1011.0 |
| 20260508070333 | 41 | 0 | 0.0 | 0.0 | 0.00 | 0.05 | 0.00 | 95 | 1011.0 |
| 20260508065833 | 41 | 0 | 0.0 | 0.0 | 0.00 | 0.05 | 0.00 | 95 | 1011.0 |
| 20260508065333 | 41 | 0 | 0.0 | 0.0 | 0.00 | 0.05 | 0.00 | 95 | 1011.0 |
| 20260508064833 | 41 | 0 | 0.0 | 0.0 | 0.00 | 0.05 | 0.00 | 94 | 1011.0 |
| 20260508064333 | 41 | 0 | 0.0 | 0.0 | 0.00 | 0.05 | 0.00 | 95 | 1011.0 |
| 20260508063833 | 41 | 0 | 0.0 | 0.0 | 0.00 | 0.05 | 0.00 | 94 | 1010.9 |
| 20260508063333 | 41 | 0 | 0.0 | 0.0 | 0.00 | 0.05 | 0.00 | 94 | 1011.0 |
| 20260508062833 | 41 | 0 | 0.0 | 0.0 | 0.00 | 0.05 | 0.00 | 94 | 1011.0 |
| 20260508062333 | 41 | 0 | 0.0 | 0.0 | 0.00 | 0.05 | 0.00 | 94 | 1011.0 |
| 20260508061833 | 41 | 0 | 0.0 | 0.0 | 0.00 | 0.05 | 0.00 | 94 | 1011.0 |
| 20260508060833 | 42 | 0 | 0.0 | 0.0 | 0.00 | 0.05 | 0.00 | 94 | 1010.9 |
| 20260508060333 | 42 | 0 | 0.0 | 0.0 | 0.00 | 0.05 | 0.00 | 94 | 1010.8 |
| 20260508055833 | 42 | 0 | 0.0 | 0.0 | 0.00 | 0.05 | 0.00 | 94 | 1010.9 |
| 20260508055333 | 42 | 0 | 0.0 | 0.0 | 0.00 | 0.05 | 0.00 | 94 | 1010.9 |
| 20260508054833 | 42 | 0 | 0.0 | 0.0 | 0.00 | 0.05 | 0.00 | 94 | 1011.0 |
| 20260508054332 | 42 | 0 | 0.0 | 0.0 | 0.00 | 0.05 | 0.00 | 94 | 1010.9 |
| 20260508053833 | 42 | 0 | 0.0 | 0.0 | 0.00 | 0.05 | 0.00 | 94 | 1010.9 |
| 20260508053333 | 42 | 0 | 0.0 | 0.0 | 0.00 | 0.05 | 0.00 | 94 | 1010.8 |
| 20260508052833 | 42 | 0 | 0.0 | 0.0 | 0.00 | 0.05 | 0.00 | 94 | 1010.7 |
| 20260508052333 | 43 | 0 | 0.0 | 0.0 | 0.00 | 0.05 | 0.00 | 94 | 1010.7 |
| 20260508051833 | 43 | 0 | 0.0 | 0.0 | 0.00 | 0.05 | 0.00 | 94 | 1010.7 |
| 20260508051333 | 43 | 0 | 0.0 | 0.0 | 0.00 | 0.05 | 0.00 | 94 | 1010.6 |
| 20260508050833 | 43 | 0 | 0.0 | 0.0 | 0.00 | 0.05 | 0.00 | 94 | 1010.6 |
| 20260508050332 | 43 | 0 | 0.0 | 0.0 | 0.00 | 0.05 | 0.00 | 94 | 1010.6 |
| 20260508045833 | 43 | 0 | 0.0 | 0.0 | 0.00 | 0.05 | 0.00 | 94 | 1010.5 |
| 20260508045333 | 43 | 0 | 0.0 | 0.0 | 0.00 | 0.05 | 0.00 | 93 | 1010.5 |
| 20260508044833 | 43 | 0 | 0.0 | 0.0 | 0.00 | 0.05 | 0.00 | 93 | 1010.4 |
| 20260508044333 | 43 | 0 | 0.0 | 0.0 | 0.00 | 0.05 | 0.00 | 93 | 1010.4 |
| 20260508043833 | 44 | 0 | 0.0 | 0.0 | 0.00 | 0.05 | 0.00 | 93 | 1010.4 |
| 20260508043333 | 44 | 0 | 0.0 | 0.0 | 0.00 | 0.05 | 0.00 | 93 | 1010.4 |
| 20260508042333 | 44 | 0 | 0.0 | 0.0 | 0.00 | 0.05 | 0.00 | 93 | 1010.4 |
| 20260508041833 | 44 | 0 | 0.0 | 0.0 | 0.00 | 0.05 | 0.00 | 93 | 1010.4 |
| 20260508041333 | 44 | 0 | 0.0 | 0.0 | 0.00 | 0.05 | 0.00 | 93 | 1010.4 |
| 20260508040833 | 45 | 0 | 0.0 | 0.0 | 0.00 | 0.05 | 0.00 | 93 | 1010.3 |
| 20260508040333 | 45 | 0 | 0.0 | 0.0 | 0.00 | 0.05 | 0.00 | 93 | 1010.4 |
| 20260508035833 | 45 | 0 | 0.0 | 0.0 | 0.00 | 0.05 | 0.00 | 93 | 1010.4 |
| 20260508035333 | 45 | 0 | 0.0 | 0.0 | 0.00 | 0.05 | 0.00 | 93 | 1010.3 |
| 20260508034833 | 45 | 0 | 0.0 | 0.0 | 0.00 | 0.05 | 0.00 | 93 | 1010.3 |
| 20260508034333 | 45 | 0 | 0.0 | 0.0 | 0.00 | 0.05 | 0.00 | 93 | 1010.4 |
| 20260508033833 | 45 | 0 | 0.0 | 0.0 | 0.00 | 0.05 | 0.00 | 93 | 1010.3 |
| 20260508033333 | 45 | 0 | 0.0 | 0.0 | 0.00 | 0.05 | 0.00 | 93 | 1010.1 |
| 20260508032833 | 45 | 0 | 0.0 | 0.0 | 0.00 | 0.05 | 0.00 | 93 | 1010.1 |
| 20260508032333 | 45 | 0 | 0.0 | 0.0 | 0.00 | 0.05 | 0.00 | 93 | 1010.1 |
| 20260508031833 | 45 | 0 | 0.0 | 0.0 | 0.00 | 0.05 | 0.00 | 93 | 1010.2 |
| 20260508031333 | 45 | 0 | 0.0 | 0.0 | 0.00 | 0.05 | 0.00 | 93 | 1010.1 |
| 20260508030833 | 45 | 0 | 0.0 | 0.0 | 0.00 | 0.05 | 0.00 | 92 | 1010.1 |
| 20260508030332 | 46 | 0 | 0.0 | 0.0 | 0.00 | 0.05 | 0.00 | 92 | 1010.1 |
| 20260508025833 | 46 | 0 | 0.0 | 0.0 | 0.00 | 0.05 | 0.00 | 92 | 1010.1 |
| 20260508025333 | 46 | 0 | 0.0 | 0.0 | 0.00 | 0.05 | 0.00 | 92 | 1010.0 |
| 20260508024833 | 46 | 0 | 0.0 | 0.0 | 0.00 | 0.05 | 0.00 | 92 | 1009.9 |
| 20260508024333 | 46 | 0 | 0.0 | 0.0 | 0.00 | 0.05 | 0.00 | 91 | 1009.8 |
| 20260508023833 | 46 | 0 | 0.0 | 0.0 | 0.00 | 0.05 | 0.00 | 91 | 1009.8 |
| 20260508023333 | 46 | 0 | 0.0 | 0.0 | 0.00 | 0.05 | 0.00 | 91 | 1009.7 |
| 20260508022833 | 46 | 0 | 0.0 | 0.0 | 0.00 | 0.05 | 0.00 | 91 | 1009.7 |
| 20260508022333 | 47 | 0 | 0.0 | 0.0 | 0.00 | 0.05 | 0.00 | 91 | 1009.6 |
| 20260508021833 | 47 | 0 | 0.0 | 0.0 | 0.00 | 0.05 | 0.00 | 91 | 1009.6 |
| 20260508021333 | 47 | 0 | 0.0 | 0.0 | 0.00 | 0.05 | 0.05 | 91 | 1009.6 |
| 20260508020833 | 47 | 0 | 0.0 | 0.0 | 0.00 | 0.05 | 0.05 | 91 | 1009.5 |
| 20260508020333 | 47 | 0 | 0.0 | 0.0 | 0.00 | 0.05 | 0.05 | 91 | 1009.5 |
| 20260508015833 | 47 | 0 | 0.0 | 0.0 | 0.00 | 0.05 | 0.05 | 91 | 1009.4 |
| 20260508015333 | 47 | 0 | 0.0 | 0.0 | 0.00 | 0.05 | 0.05 | 91 | 1009.4 |
| 20260508014833 | 48 | 0 | 0.0 | 0.0 | 0.00 | 0.05 | 0.05 | 90 | 1009.3 |
| 20260508014333 | 48 | 0 | 0.0 | 0.0 | 0.00 | 0.05 | 0.05 | 90 | 1009.2 |
| 20260508013833 | 48 | 0 | 0.0 | 0.0 | 0.00 | 0.05 | 0.05 | 90 | 1009.2 |
| 20260508013333 | 48 | 0 | 0.0 | 0.0 | 0.00 | 0.05 | 0.05 | 89 | 1009.1 |
| 20260508012833 | 48 | 0 | 0.0 | 0.0 | 0.00 | 0.05 | 0.05 | 89 | 1009.1 |
| 20260508012333 | 48 | 0 | 0.0 | 0.0 | 0.00 | 0.05 | 0.05 | 89 | 1009.0 |
| 20260508011832 | 48 | 0 | 0.0 | 0.0 | 0.00 | 0.05 | 0.05 | 89 | 1008.9 |
| 20260508011333 | 48 | 0 | 0.0 | 0.0 | 0.00 | 0.05 | 0.05 | 88 | 1009.0 |
| 20260508010833 | 48 | 0 | 0.0 | 0.0 | 0.00 | 0.05 | 0.05 | 88 | 1009.0 |
| 20260508010333 | 49 | 0 | 0.0 | 0.0 | 0.00 | 0.05 | 0.05 | 88 | 1009.0 |
| 20260508005833 | 49 | 0 | 0.0 | 0.0 | 0.00 | 0.05 | 0.05 | 88 | 1009.0 |
| 20260508005333 | 49 | 0 | 0.0 | 0.0 | 0.00 | 0.05 | 0.05 | 87 | 1008.9 |
| 20260508004833 | 49 | 0 | 0.0 | 0.0 | 0.00 | 0.05 | 0.05 | 87 | 1008.9 |
| 20260508004333 | 49 | 0 | 0.0 | 0.0 | 0.00 | 0.05 | 0.05 | 87 | 1009.0 |
| 20260508003833 | 50 | 0 | 0.0 | 0.0 | 0.00 | 0.05 | 0.05 | 86 | 1008.9 |
| 20260508003332 | 50 | 0 | 0.0 | 0.0 | 0.00 | 0.05 | 0.05 | 86 | 1008.9 |
| 20260508002833 | 50 | 0 | 0.0 | 0.0 | 0.00 | 0.05 | 0.05 | 86 | 1008.9 |
| 20260508002333 | 50 | 0 | 0.0 | 0.0 | 0.00 | 0.05 | 0.05 | 86 | 1008.9 |
| 20260508001833 | 51 | 0 | 0.0 | 0.0 | 0.00 | 0.05 | 0.05 | 85 | 1008.9 |
| 20260508001333 | 51 | 302 | 0.0 | 2.0 | 0.00 | 0.05 | 0.05 | 85 | 1008.9 |
| 20260508000833 | 51 | 302 | 0.0 | 3.0 | 0.00 | 0.05 | 0.05 | 85 | 1008.9 |
| 20260508000334 | 52 | 245 | 0.0 | 3.0 | 0.00 | 0.05 | 0.05 | 85 | 1008.9 |
| 20260507235833 | 52 | 0 | 0.0 | 0.0 | 0.00 | 0.05 | 0.05 | 86 | 1008.8 |
| 20260507235333 | 52 | 0 | 0.0 | 0.0 | 0.00 | 0.05 | 0.05 | 86 | 1008.8 |
| 20260507234833 | 52 | 0 | 0.0 | 0.0 | 0.00 | 0.05 | 0.05 | 86 | 1008.7 |
| 20260507234333 | 52 | 0 | 0.0 | 0.0 | 0.00 | 0.05 | 0.05 | 86 | 1008.7 |
| 20260507233833 | 52 | 0 | 0.0 | 0.0 | 0.00 | 0.05 | 0.05 | 85 | 1008.7 |
| 20260507233332 | 52 | 0 | 0.0 | 0.0 | 0.00 | 0.05 | 0.05 | 85 | 1008.8 |
| 20260507232833 | 52 | 0 | 0.0 | 0.0 | 0.00 | 0.05 | 0.05 | 85 | 1008.7 |
| 20260507232333 | 52 | 0 | 0.0 | 0.0 | 0.00 | 0.05 | 0.05 | 85 | 1008.7 |
| 20260507231833 | 51 | 0 | 0.0 | 0.0 | 0.00 | 0.05 | 0.05 | 86 | 1008.7 |
| 20260507231333 | 51 | 0 | 0.0 | 0.0 | 0.00 | 0.05 | 0.05 | 87 | 1008.7 |
| 20260507230833 | 51 | 0 | 0.0 | 0.0 | 0.00 | 0.05 | 0.05 | 87 | 1008.8 |
| 20260507230333 | 51 | 0 | 0.0 | 0.0 | 0.00 | 0.05 | 0.05 | 87 | 1008.9 |
| 20260507225833 | 51 | 0 | 0.0 | 0.0 | 0.00 | 0.05 | 0.05 | 87 | 1008.9 |
| 20260507225333 | 50 | 0 | 0.0 | 0.0 | 0.00 | 0.05 | 0.05 | 88 | 1008.9 |
| 20260507224833 | 50 | 0 | 0.0 | 0.0 | 0.00 | 0.05 | 0.05 | 88 | 1008.9 |
| 20260507224333 | 50 | 0 | 0.0 | 0.0 | 0.00 | 0.05 | 0.05 | 88 | 1008.9 |
| 20260507223832 | 50 | 0 | 0.0 | 0.0 | 0.00 | 0.05 | 0.05 | 89 | 1009.0 |
| 20260507223333 | 49 | 0 | 0.0 | 0.0 | 0.01 | 0.05 | 0.05 | 89 | 1009.1 |
| 20260507222833 | 49 | 0 | 0.0 | 0.0 | 0.01 | 0.05 | 0.05 | 90 | 1009.2 |
| 20260507222333 | 49 | 0 | 0.0 | 0.0 | 0.02 | 0.05 | 0.05 | 90 | 1009.2 |
| 20260507221833 | 49 | 0 | 0.0 | 0.0 | 0.03 | 0.05 | 0.05 | 91 | 1009.4 |
| 20260507221333 | 48 | 0 | 0.0 | 0.0 | 0.03 | 0.05 | 0.05 | 90 | 1009.4 |
| 20260507220833 | 48 | 0 | 0.0 | 0.0 | 0.03 | 0.05 | 0.05 | 90 | 1009.5 |
| 20260507220333 | 48 | 265 | 0.0 | 1.0 | 0.04 | 0.05 | 0.05 | 89 | 1009.7 |
| 20260507215833 | 48 | 265 | 0.0 | 1.0 | 0.04 | 0.05 | 0.05 | 90 | 1009.8 |
| 20260507215333 | 48 | 0 | 0.0 | 0.0 | 0.05 | 0.05 | 0.05 | 90 | 1009.8 |
| 20260507214833 | 48 | 0 | 0.0 | 0.0 | 0.05 | 0.05 | 0.05 | 89 | 1009.9 |
| 20260507214333 | 48 | 0 | 0.0 | 0.0 | 0.05 | 0.05 | 0.05 | 89 | 1010.1 |
| 20260507213833 | 47 | 217 | 0.0 | 1.0 | 0.05 | 0.05 | 0.05 | 89 | 1010.2 |
| 20260507213333 | 47 | 217 | 0.0 | 1.0 | 0.04 | 0.04 | 0.04 | 89 | 1010.2 |
| 20260507212833 | 47 | 217 | 0.0 | 1.0 | 0.04 | 0.04 | 0.04 | 87 | 1010.3 |
| 20260507212333 | 46 | 0 | 0.0 | 0.0 | 0.03 | 0.03 | 0.03 | 86 | 1010.4 |
| 20260507211833 | 47 | 217 | 0.0 | 1.0 | 0.02 | 0.02 | 0.02 | 85 | 1010.4 |
| 20260507211333 | 47 | 217 | 0.0 | 2.0 | 0.02 | 0.02 | 0.02 | 83 | 1010.2 |
| 20260507210833 | 47 | 217 | 0.0 | 2.0 | 0.02 | 0.02 | 0.02 | 82 | 1010.1 |
| 20260507210333 | 47 | 106 | 0.0 | 2.0 | 0.01 | 0.01 | 0.01 | 80 | 1009.9 |
| 20260507205833 | 48 | 59 | 0.0 | 2.0 | 0.01 | 0.01 | 0.01 | 78 | 1010.0 |
| 20260507205333 | 48 | 332 | 0.0 | 5.0 | 0.00 | 0.00 | 0.00 | 76 | 1009.9 |
| 20260507204833 | 48 | 169 | 1.0 | 5.0 | 0.00 | 0.00 | 0.00 | 76 | 1009.8 |
| 20260507204333 | 48 | 145 | 0.0 | 5.0 | 0.00 | 0.00 | 0.00 | 78 | 1009.6 |
| 20260507203833 | 47 | 219 | 1.0 | 5.0 | 0.00 | 0.00 | 0.00 | 78 | 1009.8 |
| 20260507203333 | 47 | 288 | 0.0 | 3.0 | 0.00 | 0.00 | 0.00 | 77 | 1010.0 |
| 20260507202833 | 47 | 12 | 0.0 | 3.0 | 0.00 | 0.00 | 0.00 | 77 | 1010.1 |
| 20260507202333 | 47 | 192 | 0.0 | 3.0 | 0.00 | 0.00 | 0.00 | 78 | 1010.2 |
| 20260507201833 | 47 | 167 | 0.0 | 2.0 | 0.00 | 0.00 | 0.00 | 79 | 1010.2 |
| 20260507201333 | 46 | 167 | 0.0 | 2.0 | 0.00 | 0.00 | 0.00 | 78 | 1010.3 |
| 20260507200833 | 46 | 347 | 0.0 | 3.0 | 0.00 | 0.00 | 0.00 | 79 | 1010.3 |
| 20260507200333 | 46 | 175 | 1.0 | 3.0 | 0.00 | 0.00 | 0.00 | 80 | 1010.4 |
| 20260507195833 | 46 | 175 | 0.0 | 7.0 | 0.00 | 0.00 | 0.00 | 80 | 1010.4 |
| 20260507195333 | 46 | 191 | 1.0 | 7.0 | 0.00 | 0.00 | 0.00 | 80 | 1010.4 |
| 20260507194833 | 46 | 185 | 1.0 | 6.0 | 0.00 | 0.00 | 0.00 | 79 | 1010.5 |
| 20260507193833 | 47 | 191 | 0.0 | 5.0 | 0.00 | 0.00 | 0.00 | 77 | 1010.7 |
| 20260507193333 | 47 | 138 | 1.0 | 4.0 | 0.00 | 0.00 | 0.00 | 77 | 1010.9 |
| 20260507192833 | 48 | 214 | 0.0 | 4.0 | 0.00 | 0.00 | 0.00 | 78 | 1011.0 |
| 20260507192333 | 48 | 214 | 0.0 | 4.0 | 0.00 | 0.00 | 0.00 | 77 | 1011.0 |
| 20260507191833 | 48 | 144 | 0.0 | 5.0 | 0.00 | 0.00 | 0.00 | 74 | 1011.3 |
| 20260507191333 | 49 | 155 | 0.0 | 7.0 | 0.00 | 0.00 | 0.00 | 73 | 1011.4 |
| 20260507190833 | 49 | 181 | 1.0 | 7.0 | 0.00 | 0.00 | 0.00 | 72 | 1011.2 |
| 20260507190333 | 50 | 242 | 0.0 | 6.0 | 0.00 | 0.00 | 0.00 | 71 | 1011.0 |
| 20260507185833 | 50 | 195 | 1.0 | 8.0 | 0.00 | 0.00 | 0.00 | 69 | 1011.1 |
| 20260507185333 | 50 | 148 | 1.0 | 8.0 | 0.00 | 0.00 | 0.00 | 68 | 1010.9 |
| 20260507184833 | 50 | 141 | 0.0 | 6.0 | 0.00 | 0.00 | 0.00 | 68 | 1010.8 |
| 20260507184333 | 51 | 160 | 1.0 | 6.0 | 0.00 | 0.00 | 0.00 | 67 | 1010.9 |